[Iaude] MPEC K07: 2023 JX34 [a=22.47,e=0.51,i=30.9,H=11.7]

mpec at cfa.harvard.edu mpec at cfa.harvard.edu
Thu May 16 20:43:20 EDT 2024


M.P.E.C. 2024-K07                                  Issued 2024 May 17, 00:41 UT

     The Minor Planet Electronic Circulars contain information on unusual
         minor planets, routine data on comets and natural satellites,
         and occasional editorial announcements.  They are published
    on behalf of Division F of the International Astronomical Union by the
          Minor Planet Center, Smithsonian Astrophysical Observatory,
                          Cambridge, MA 02138, U.S.A.
			  
             Prepared using the Tamkin Foundation Computer Network

                              MPC at CFA.HARVARD.EDU
            URL https://www.minorplanetcenter.net/    ISSN 1523-6714

                                   2023 JX34                                    


Observations:
     K23J34X* C2023 05 13.52757315 59 23.669+12 59 03.04         22.07wXEK007F52
     K23J34X  C2023 05 13.55098315 59 23.348+12 59 05.05         22.37wXEK007F52
     K23J34X  C2023 05 13.56265415 59 23.183+12 59 05.70         22.35wXEK007F52
     K23J34X 3C2023 05 14.53847615 59 09.571+13 00 20.29         21.89GVEK007T14
     K23J34X 3C2023 05 14.54004615 59 09.547+13 00 20.41         21.90GVEK007T14
     K23J34X 3C2023 05 14.54134815 59 09.530+13 00 20.45         21.82GVEK007T14
     K23J34X  C2024 04 09.50096316 56 42.222+10 15 53.93         22.33GVEK007F51
     K23J34X  C2024 04 09.51265316 56 42.166+10 15 55.52         22.36GVEK007F51
     K23J34X  C2024 04 09.52439116 56 42.106+10 15 57.24         22.52GVEK007F51
     K23J34X  C2024 04 09.53618916 56 42.073+10 15 58.94         22.47GVEK007F51
     K23J34X  C2024 05 03.40174216 53 36.237+11 08 51.49         22.12GVEK007F52
     K23J34X  C2024 05 03.41352916 53 36.120+11 08 52.86         22.52GVEK007F52
     K23J34X  C2024 05 03.42529216 53 35.982+11 08 53.90         21.94GVEK007F52
     K23J34X  C2024 05 03.43706016 53 35.872+11 08 55.31         22.34GVEK007F52
     K23J34X  C2024 05 08.54158916 52 37.310+11 17 44.96         22.31wXEK007F51
     K23J34X  C2024 05 08.56638216 52 37.006+11 17 47.54         22.74wXEK007F51
     K23J34X  C2024 05 08.57875716 52 36.859+11 17 48.56         22.18wXEK007F51
     K23J34X 7C2024 05 09.05698416 52 31.131+11 18 34.59               VEK007Z84
     K23J34X 7C2024 05 09.07246216 52 30.930+11 18 36.17         22.3 GVEK007Z84
     K23J34X 7C2024 05 09.08795516 52 30.777+11 18 37.47               VEK007Z84
     K23J34X 3C2024 05 09.60421116 52 24.468+11 19 27.00         21.99GVEK007T14
     K23J34X 3C2024 05 09.60541816 52 24.450+11 19 27.11         21.99GVEK007T14
     K23J34X 3C2024 05 09.60663416 52 24.437+11 19 27.21         22.04GVEK007T14
     K23J34X 6C2024 05 14.02762 16 51 29.03 +11 25 58.7          21.3 GVEK007Z84
     K23J34X 6C2024 05 14.09392 16 51 28.13 +11 26 04.3          21.1 GVEK007Z84
     K23J34X KC2024 05 14.44448016 51 23.598+11 26 32.71         21.84GVEK007V06
     K23J34X KC2024 05 14.44927716 51 23.533+11 26 33.07         22.02GVEK007V06
     K23J34X KC2024 05 14.45407416 51 23.454+11 26 33.54         22.05GVEK007V06
     K23J34X KC2024 05 14.45884616 51 23.389+11 26 33.86         21.70GVEK007V06
     K23J34X KC2024 05 15.32574616 51 12.186+11 27 43.16         21.88GVEK007V06
     K23J34X KC2024 05 15.33594216 51 12.017+11 27 43.96         22.47GVEK007V06
     K23J34X KC2024 05 15.34624216 51 11.884+11 27 44.86         22.05GVEK007V06
     K23J34X KC2024 05 15.35672016 51 11.747+11 27 45.83         22.35GVEK007V06

Observer details:
F51 Pan-STARRS 1, Haleakala.  Observers J. Herman, T. Lowe, P. Minguez, A.
    Schultz, I. Smith.  Measurers K. Chambers, T. de Boer, J. Fairlamb, H.
    Gao, M. Huber, C.-C. Lin, E. Magnier, Y. Ramanjooloo, R. Wainscoat, R.
    Weryk.  1.8-m Ritchey-Chretien + CCD.
F52 Pan-STARRS 2, Haleakala.  Observers J. Bulger, T. Lowe, A. Schultz, I.
    Smith, J. Herman, P. Minguez.  Measurers K. Chambers, S. Chastel, T. de
    Boer, J. Fairlamb, H. Gao, M. Huber, C.-C. Lin, E. Magnier, Y.
    Ramanjooloo, R. Wainscoat, R. Weryk.  1.8-m Ritchey-Chretien + CCD.
T14 Canada-France-Hawaii Telescope, Maunakea.  Observers R. Wainscoat, C.
    Cunningham, N. Manset, H. Januszewski, T. Burdullis.  Measurers R. Weryk,
    R. Wainscoat.  3.6-m Canada-France-Hawaii Telescope + CCD, 3.6-m f/4.1
    reflector + CCD.
V06 Catalina Sky Survey-Kuiper.  Observer K. W. Wierzchos.  Measurers T.
    Beuden, V. F. Carvajal, D. Fay, J. B. Fazekas, D. C. Fuls, A. R. Gibbs, A.
    D. Grauer, H. Groeller, J. K. Hogan, R. A. Kowalski, S. M. Larson, G. J.
    Leonard, D. Rankin, R. L. Seaman, F. C. Shelly, K. W. Wierzchos.  1.55-m
    reflector + 1K CCD.
Z84 Calar Alto-Schmidt.  Observers F. Ocana, R. Kresken, M. Micheli, L.
    Conversi.  0.8-m f/3 Schmidt + CCD.

Orbital elements:
2023 JX34                                                                       
Epoch 2024 Mar. 31.0 TT = JDT 2460400.5                 Veres                   
M   2.06808              (2000.0)            P               Q                  
n   0.00925239     Peri.   79.64793     -0.45876284     +0.87085117             
a  22.4715787      Node   159.90321     -0.87157383     -0.47967994             
e   0.5058801      Incl.   30.90994     +0.17290380     -0.10735639             
P 107              H   11.71          G   0.15           U   4                  
Residuals in seconds of arc
230513 F52  0.1-  0.1-    240503 F52  0.1-  0.0     240509 T14  0.0   0.0
230513 F52  0.1+  0.1+    240503 F52  0.2-  0.2-    240514 Z84  0.1+  0.1+
230513 F52  0.1+  0.2-    240503 F52  0.2+  0.1-    240514 Z84  0.2-  0.3+
230514 T14  0.0   0.0     240508 F51  0.1-  0.1-    240514 V06  0.0   0.1-
230514 T14  0.0   0.0     240508 F51  0.0   0.1+    240514 V06  0.0   0.1-
230514 T14  0.0   0.0     240508 F51  0.0   0.1-    240514 V06  0.3-  0.0
240409 F51  0.0   0.2+    240509 Z84  0.1-  0.0     240514 V06  0.3-  0.1-
240409 F51  0.0   0.0     240509 Z84  0.2-  0.1+    240515 V06  0.4+  0.2-
240409 F51  0.1-  0.1-    240509 Z84  0.3+  0.1-    240515 V06  0.1-  0.2-
240409 F51  0.2+  0.1-    240509 T14  0.0   0.0     240515 V06  0.0   0.1-
240503 F52  0.3-  0.0     240509 T14  0.0   0.0     240515 V06  0.1+  0.0

Ephemeris:
2023 JX34                a,e,i = 22.47, 0.51, 31                 q = 11.1037
Date    TT    R. A. (2000) Decl.     Delta      r    Elong.  Phase     V
2024 04 17    16 56 01.5 +10 34 11  10.5043 11.1387   127.1     4.1    22.4
...
2024 05 02    16 53 51.3 +11 06 15  10.3842 11.1432   137.1     3.5    22.4
...
2024 05 10    16 52 19.7 +11 20 04  10.3398 11.1457   141.3     3.2    22.3
...
2024 05 16    16 51 03.3 +11 28 36  10.3164 11.1476   143.7     3.1    22.3
2024 05 17    16 50 50.1 +11 29 52  10.3133 11.1479   144.1     3.1    22.3
2024 05 18    16 50 36.7 +11 31 04  10.3105 11.1483   144.4     3.0    22.3
...
2024 05 24    16 49 14.2 +11 37 17  10.2986 11.1502   145.8     2.9    22.3
...
2024 06 01    16 47 20.2 +11 42 40  10.2966 11.1530   146.1     2.9    22.3
...
2024 06 16    16 43 46.5 +11 43 24  10.3354 11.1583   142.5     3.2    22.3

M. P. C. Staff               (C) Copyright 2024 MPC           M.P.E.C. 2024-K07





More information about the Iaude mailing list